START_TIME,STEP,MOV.,EG07,t_acc.,EG08,t_acc.,EG09,t_acc.,EB05,t_acc.,EBP05,t_acc.
1979-08-02 12:00:21.650 ,0,0,0.,1.2,0.,1.2,0.,1.2,,0.0,,0.0
1979-08-02 12:00:22.850 ,0,0,2.,1.2,0.,1.2,0.,1.2,,0.0,,0.0
1979-08-02 12:00:24.050 ,0,0,3.,1.2,0.,1.2,0.,1.2,,0.0,,0.0
1979-08-02 12:00:25.250 ,0,0,0.,1.2,0.,1.2,0.,1.2,,0.0,,0.0
1979-08-02 12:00:26.450 ,0,0,2.,1.2,1.,1.2,0.,1.2,,0.0,,0.0
1979-08-02 12:00:27.650 ,0,0,0.,1.2,0.,1.2,0.,1.2,,0.0,,0.0
1979-08-02 12:00:28.850 ,0,0,1.,1.2,0.,1.2,0.,1.2,,0.0,,0.0
1979-08-02 12:00:30.050 ,0,0,0.,1.2,0.,1.2,0.,1.2,,0.0,,0.0
1979-08-02 12:00:31.250 ,0,0,0.,1.2,0.,1.2,0.,1.2,,0.0,,0.0
1979-08-02 12:00:32.450 ,0,0,1.,1.2,0.,1.2,0.,1.2,,0.0,,0.0
1979-08-02 12:00:33.650 ,0,0,0.,1.2,0.,1.2,0.,1.2,,0.0,,0.0
1979-08-02 12:00:34.850 ,0,0,1.,1.2,0.,1.2,0.,1.2,,0.0,,0.0
1979-08-02 12:00:36.050 ,0,0,1.,1.2,0.,1.2,0.,1.2,,0.0,,0.0
1979-08-02 12:00:37.250 ,0,0,0.,1.2,0.,1.2,0.,1.2,,0.0,,0.0
1979-08-02 12:00:38.450 ,0,0,1.,1.2,0.,1.2,0.,1.2,,0.0,,0.0
1979-08-02 12:00:39.650 ,0,0,0.,1.2,0.,1.2,0.,1.2,,0.0,,0.0
1979-08-02 12:00:40.850 ,0,0,1.,1.2,0.,1.2,0.,1.2,,0.0,,0.0
1979-08-02 12:00:42.050 ,0,0,3.,1.2,0.,1.2,0.,1.2,,0.0,,0.0
1979-08-02 12:00:43.250 ,0,0,2.,1.2,0.,1.2,0.,1.2,,0.0,,0.0
1979-08-02 12:00:44.450 ,0,0,2.,1.2,0.,1.2,0.,1.2,,0.0,,0.0
1979-08-02 12:00:45.650 ,1,0,3.,1.2,0.,1.2,0.,1.2,,0.0,,0.0
1979-08-02 12:00:46.850 ,1,0,3.,1.2,0.,1.2,0.,1.2,,0.0,,0.0
1979-08-02 12:00:48.050 ,1,0,1.,1.2,0.,1.2,0.,1.2,,0.0,,0.0
1979-08-02 12:00:49.250 ,1,0,2.,1.2,0.,1.2,0.,1.2,,0.0,,0.0
1979-08-02 12:00:50.450 ,1,0,1.,1.2,1.,1.2,0.,1.2,,0.0,,0.0
1979-08-02 12:00:51.650 ,1,0,0.,1.2,0.,1.2,0.,1.2,,0.0,,0.0
1979-08-02 12:00:52.850 ,1,0,1.,1.2,0.,1.2,0.,1.2,,0.0,,0.0
1979-08-02 12:00:54.050 ,1,0,0.,1.2,0.,1.2,0.,1.2,,0.0,,0.0
1979-08-02 12:00:55.250 ,1,0,1.,1.2,0.,1.2,0.,1.2,,0.0,,0.0
1979-08-02 12:00:56.450 ,1,0,2.,1.2,0.,1.2,0.,1.2,,0.0,,0.0
1979-08-02 12:00:57.650 ,1,0,2.,1.2,0.,1.2,0.,1.2,,0.0,,0.0
1979-08-02 12:00:58.850 ,1,0,2.,1.2,0.,1.2,0.,1.2,,0.0,,0.0
1979-08-02 12:01:00.050 ,1,0,1.,1.2,0.,1.2,0.,1.2,,0.0,,0.0
1979-08-02 12:01:01.250 ,1,0,0.,1.2,0.,1.2,0.,1.2,,0.0,,0.0
1979-08-02 12:01:02.450 ,1,0,1.,1.2,0.,1.2,0.,1.2,,0.0,,0.0
1979-08-02 12:01:03.650 ,1,0,0.,1.2,0.,1.2,0.,1.2,,0.0,,0.0
1979-08-02 12:01:04.850 ,1,0,1.,1.2,0.,1.2,0.,1.2,,0.0,,0.0
1979-08-02 12:01:06.050 ,1,0,0.,1.2,0.,1.2,0.,1.2,,0.0,,0.0
1979-08-02 12:01:07.250 ,1,0,2.,1.2,1.,1.2,0.,1.2,,0.0,,0.0
1979-08-02 12:01:08.450 ,1,0,1.,1.2,0.,1.2,0.,1.2,,0.0,,0.0
1979-08-02 12:01:09.650 ,1,0,1.,1.2,1.,1.2,0.,1.2,,0.0,,0.0
1979-08-02 12:01:10.850 ,1,0,2.,1.2,1.,1.2,0.,1.2,,0.0,,0.0
1979-08-02 12:01:12.050 ,1,0,0.,1.2,0.,1.2,0.,1.2,,0.0,,0.0
1979-08-02 12:01:13.250 ,1,0,0.,1.2,0.,1.2,0.,1.2,,0.0,,0.0
1979-08-02 12:01:14.450 ,1,0,1.,1.2,0.,1.2,0.,1.2,,0.0,,0.0
1979-08-02 12:01:15.650 ,1,0,1.,1.2,0.,1.2,0.,1.2,,0.0,,0.0
1979-08-02 12:01:16.850 ,1,0,3.,1.2,0.,1.2,0.,1.2,,0.0,,0.0
1979-08-02 12:01:18.050 ,1,0,2.,1.2,0.,1.2,0.,1.2,,0.0,,0.0
1979-08-02 12:01:19.250 ,1,0,1.,1.2,1.,1.2,0.,1.2,,0.0,,0.0
1979-08-02 12:01:20.450 ,1,0,1.,1.2,0.,1.2,0.,1.2,,0.0,,0.0
1979-08-02 12:01:21.650 ,1,0,0.,1.2,0.,1.2,0.,1.2,,0.0,,0.0
1979-08-02 12:01:22.850 ,1,0,2.,1.2,0.,1.2,0.,1.2,,0.0,,0.0
1979-08-02 12:01:24.050 ,1,0,1.,1.2,0.,1.2,0.,1.2,,0.0,,0.0
1979-08-02 12:01:25.250 ,1,0,0.,1.2,0.,1.2,0.,1.2,,0.0,,0.0
1979-08-02 12:01:26.450 ,1,0,0.,1.2,0.,1.2,0.,1.2,,0.0,,0.0
1979-08-02 12:01:27.650 ,1,0,2.,1.2,0.,1.2,0.,1.2,,0.0,,0.0
1979-08-02 12:01:28.850 ,1,0,0.,1.2,0.,1.2,0.,1.2,,0.0,,0.0
1979-08-02 12:01:30.050 ,1,0,1.,1.2,1.,1.2,0.,1.2,,0.0,,0.0
1979-08-02 12:01:31.250 ,1,0,2.,1.2,1.,1.2,0.,1.2,,0.0,,0.0
1979-08-02 12:01:32.450 ,1,0,0.,1.2,0.,1.2,0.,1.2,,0.0,,0.0
1979-08-02 12:01:33.650 ,2,0,2.,1.2,0.,1.2,0.,1.2,,0.0,,0.0
1979-08-02 12:01:34.850 ,2,0,3.,1.2,0.,1.2,0.,1.2,,0.0,,0.0
1979-08-02 12:01:36.050 ,2,0,0.,1.2,0.,1.2,0.,1.2,,0.0,,0.0
1979-08-02 12:01:37.250 ,2,0,0.,1.2,0.,1.2,0.,1.2,,0.0,,0.0
1979-08-02 12:01:38.450 ,2,0,1.,1.2,1.,1.2,0.,1.2,,0.0,,0.0
1979-08-02 12:01:39.650 ,2,0,0.,1.2,0.,1.2,0.,1.2,,0.0,,0.0
1979-08-02 12:01:40.850 ,2,0,1.,1.2,0.,1.2,0.,1.2,,0.0,,0.0
1979-08-02 12:01:42.050 ,2,0,2.,1.2,0.,1.2,0.,1.2,,0.0,,0.0
1979-08-02 12:01:43.250 ,2,0,3.,1.2,0.,1.2,0.,1.2,,0.0,,0.0
1979-08-02 12:01:44.450 ,2,0,2.,1.2,0.,1.2,0.,1.2,,0.0,,0.0
1979-08-02 12:01:45.650 ,2,0,1.,1.2,0.,1.2,0.,1.2,,0.0,,0.0
1979-08-02 12:01:46.850 ,2,0,4.,1.2,1.,1.2,0.,1.2,,0.0,,0.0
1979-08-02 12:01:48.050 ,2,0,1.,1.2,0.,1.2,0.,1.2,,0.0,,0.0
1979-08-02 12:01:49.250 ,2,0,0.,1.2,0.,1.2,0.,1.2,,0.0,,0.0
1979-08-02 12:01:50.450 ,2,0,2.,1.2,0.,1.2,0.,1.2,,0.0,,0.0
1979-08-02 12:01:51.650 ,2,0,5.,1.2,1.,1.2,0.,1.2,,0.0,,0.0
1979-08-02 12:01:52.850 ,2,0,0.,1.2,0.,1.2,0.,1.2,,0.0,,0.0
1979-08-02 12:01:54.050 ,2,0,0.,1.2,0.,1.2,0.,1.2,,0.0,,0.0
1979-08-02 12:01:55.250 ,2,0,0.,1.2,0.,1.2,0.,1.2,,0.0,,0.0
1979-08-02 12:01:56.450 ,2,0,1.,1.2,0.,1.2,0.,1.2,,0.0,,0.0
1979-08-02 12:01:57.650 ,2,0,0.,1.2,0.,1.2,0.,1.2,,0.0,,0.0
1979-08-02 12:01:58.850 ,2,0,0.,1.2,0.,1.2,0.,1.2,,0.0,,0.0
1979-08-02 12:02:00.050 ,2,0,0.,1.2,0.,1.2,0.,1.2,,0.0,,0.0
1979-08-02 12:02:01.250 ,2,0,0.,1.2,0.,1.2,0.,1.2,,0.0,,0.0
1979-08-02 12:02:02.450 ,2,0,0.,1.2,0.,1.2,0.,1.2,,0.0,,0.0
1979-08-02 12:02:03.650 ,2,0,1.,1.2,0.,1.2,0.,1.2,,0.0,,0.0
1979-08-02 12:02:04.850 ,2,0,2.,1.2,0.,1.2,0.,1.2,,0.0,,0.0
1979-08-02 12:02:06.050 ,2,0,1.,1.2,0.,1.2,0.,1.2,,0.0,,0.0
1979-08-02 12:02:07.250 ,2,0,1.,1.2,0.,1.2,0.,1.2,,0.0,,0.0
1979-08-02 12:02:08.450 ,2,0,0.,1.2,0.,1.2,0.,1.2,,0.0,,0.0
1979-08-02 12:02:09.650 ,2,0,1.,1.2,0.,1.2,0.,1.2,,0.0,,0.0
1979-08-02 12:02:10.850 ,2,0,1.,1.2,0.,1.2,0.,1.2,,0.0,,0.0
1979-08-02 12:02:12.050 ,2,0,2.,1.2,0.,1.2,0.,1.2,,0.0,,0.0
1979-08-02 12:02:13.250 ,2,0,1.,1.2,0.,1.2,0.,1.2,,0.0,,0.0
1979-08-02 12:02:14.450 ,2,0,1.,1.2,1.,1.2,1.,1.2,,0.0,,0.0
1979-08-02 12:02:15.650 ,2,0,3.,1.2,0.,1.2,0.,1.2,,0.0,,0.0
1979-08-02 12:02:16.850 ,2,0,1.,1.2,0.,1.2,0.,1.2,,0.0,,0.0
1979-08-02 12:02:18.050 ,2,0,1.,1.2,1.,1.2,0.,1.2,,0.0,,0.0
1979-08-02 12:02:19.250 ,2,0,2.,1.2,0.,1.2,0.,1.2,,0.0,,0.0
1979-08-02 12:02:20.450 ,2,0,1.,1.2,1.,1.2,0.,1.2,,0.0,,0.0
1979-08-02 12:02:21.650 ,3,0,2.,1.2,1.,1.2,0.,1.2,,0.0,,0.0
1979-08-02 12:02:22.850 ,3,0,2.,1.2,0.,1.2,0.,1.2,,0.0,,0.0
1979-08-02 12:02:24.050 ,3,0,1.,1.2,1.,1.2,1.,1.2,,0.0,,0.0
1979-08-02 12:02:25.250 ,3,0,2.,1.2,1.,1.2,0.,1.2,,0.0,,0.0
1979-08-02 12:02:26.450 ,3,0,2.,1.2,0.,1.2,0.,1.2,,0.0,,0.0
1979-08-02 12:02:27.650 ,3,0,1.,1.2,0.,1.2,0.,1.2,,0.0,,0.0
1979-08-02 12:02:28.850 ,3,0,1.,1.2,0.,1.2,0.,1.2,,0.0,,0.0
1979-08-02 12:02:30.050 ,3,0,0.,1.2,0.,1.2,0.,1.2,,0.0,,0.0
1979-08-02 12:02:31.250 ,3,0,3.,1.2,1.,1.2,0.,1.2,,0.0,,0.0
1979-08-02 12:02:32.450 ,3,0,0.,1.2,0.,1.2,0.,1.2,,0.0,,0.0
1979-08-02 12:02:33.650 ,3,0,0.,1.2,0.,1.2,0.,1.2,,0.0,,0.0
1979-08-02 12:02:34.850 ,3,0,1.,1.2,0.,1.2,0.,1.2,,0.0,,0.0
1979-08-02 12:02:36.050 ,3,0,2.,1.2,1.,1.2,0.,1.2,,0.0,,0.0
1979-08-02 12:02:37.250 ,3,0,1.,1.2,0.,1.2,0.,1.2,,0.0,,0.0
1979-08-02 12:02:38.450 ,3,0,1.,1.2,0.,1.2,0.,1.2,,0.0,,0.0
1979-08-02 12:02:39.650 ,3,0,2.,1.2,0.,1.2,0.,1.2,,0.0,,0.0
1979-08-02 12:02:40.850 ,3,0,2.,1.2,1.,1.2,0.,1.2,,0.0,,0.0
1979-08-02 12:02:42.050 ,3,0,3.,1.2,1.,1.2,0.,1.2,,0.0,,0.0
1979-08-02 12:02:43.250 ,3,0,1.,1.2,0.,1.2,0.,1.2,,0.0,,0.0
1979-08-02 12:02:44.450 ,3,0,3.,1.2,0.,1.2,0.,1.2,,0.0,,0.0
1979-08-02 12:02:45.650 ,3,0,2.,1.2,0.,1.2,0.,1.2,,0.0,,0.0
1979-08-02 12:02:46.850 ,3,0,0.,1.2,0.,1.2,0.,1.2,,0.0,,0.0
1979-08-02 12:02:48.050 ,3,0,0.,1.2,0.,1.2,0.,1.2,,0.0,,0.0
1979-08-02 12:02:49.250 ,3,0,3.,1.2,0.,1.2,0.,1.2,,0.0,,0.0
1979-08-02 12:02:50.450 ,3,0,2.,1.2,0.,1.2,0.,1.2,,0.0,,0.0
1979-08-02 12:02:51.650 ,3,0,2.,1.2,0.,1.2,0.,1.2,,0.0,,0.0
1979-08-02 12:02:52.850 ,3,0,2.,1.2,0.,1.2,0.,1.2,,0.0,,0.0
1979-08-02 12:02:54.050 ,3,0,0.,1.2,0.,1.2,0.,1.2,,0.0,,0.0
1979-08-02 12:02:55.250 ,3,0,1.,1.2,0.,1.2,0.,1.2,,0.0,,0.0
1979-08-02 12:02:56.450 ,3,0,0.,1.2,0.,1.2,0.,1.2,,0.0,,0.0
1979-08-02 12:02:57.650 ,3,0,0.,1.2,0.,1.2,0.,1.2,,0.0,,0.0
1979-08-02 12:02:58.850 ,3,0,0.,1.2,0.,1.2,0.,1.2,,0.0,,0.0
1979-08-02 12:03:00.050 ,3,0,1.,1.2,0.,1.2,0.,1.2,,0.0,,0.0
1979-08-02 12:03:01.250 ,3,0,0.,1.2,0.,1.2,0.,1.2,,0.0,,0.0
1979-08-02 12:03:02.450 ,3,0,2.,1.2,0.,1.2,0.,1.2,,0.0,,0.0
1979-08-02 12:03:03.650 ,3,0,1.,1.2,0.,1.2,0.,1.2,,0.0,,0.0
1979-08-02 12:03:04.850 ,3,0,0.,1.2,0.,1.2,0.,1.2,,0.0,,0.0
1979-08-02 12:03:06.050 ,3,0,3.,1.2,0.,1.2,0.,1.2,,0.0,,0.0
1979-08-02 12:03:07.250 ,3,0,1.,1.2,0.,1.2,0.,1.2,,0.0,,0.0
1979-08-02 12:03:08.450 ,3,0,0.,1.2,0.,1.2,0.,1.2,,0.0,,0.0
1979-08-02 12:03:09.650 ,4,0,2.,1.2,0.,1.2,0.,1.2,,0.0,,0.0
1979-08-02 12:03:10.850 ,4,0,0.,1.2,0.,1.2,0.,1.2,,0.0,,0.0
1979-08-02 12:03:12.050 ,4,0,1.,1.2,0.,1.2,0.,1.2,,0.0,,0.0
1979-08-02 12:03:13.250 ,4,0,2.,1.2,0.,1.2,0.,1.2,,0.0,,0.0
1979-08-02 12:03:14.450 ,4,0,1.,1.2,0.,1.2,0.,1.2,,0.0,,0.0
1979-08-02 12:03:15.650 ,4,0,6.,1.2,2.,1.2,0.,1.2,,0.0,,0.0
1979-08-02 12:03:16.850 ,4,0,1.,1.2,1.,1.2,1.,1.2,,0.0,,0.0
1979-08-02 12:03:18.050 ,4,0,2.,1.2,0.,1.2,0.,1.2,,0.0,,0.0
1979-08-02 12:03:19.250 ,4,0,1.,1.2,0.,1.2,0.,1.2,,0.0,,0.0
1979-08-02 12:03:20.450 ,4,0,0.,1.2,0.,1.2,0.,1.2,,0.0,,0.0
1979-08-02 12:03:21.650 ,4,0,0.,1.2,0.,1.2,0.,1.2,,0.0,,0.0
1979-08-02 12:03:22.850 ,4,0,0.,1.2,0.,1.2,0.,1.2,,0.0,,0.0
1979-08-02 12:03:24.050 ,4,0,0.,1.2,0.,1.2,0.,1.2,,0.0,,0.0
1979-08-02 12:03:25.250 ,4,0,1.,1.2,0.,1.2,0.,1.2,,0.0,,0.0
1979-08-02 12:03:26.450 ,4,0,0.,1.2,0.,1.2,0.,1.2,,0.0,,0.0
1979-08-02 12:03:27.650 ,4,0,0.,1.2,0.,1.2,0.,1.2,,0.0,,0.0
1979-08-02 12:03:28.850 ,4,0,2.,1.2,0.,1.2,0.,1.2,,0.0,,0.0
1979-08-02 12:03:30.050 ,4,0,0.,1.2,0.,1.2,0.,1.2,,0.0,,0.0
1979-08-02 12:03:31.250 ,4,0,3.,1.2,0.,1.2,0.,1.2,,0.0,,0.0
1979-08-02 12:03:32.450 ,4,0,1.,1.2,0.,1.2,0.,1.2,,0.0,,0.0
1979-08-02 12:03:33.650 ,4,0,0.,1.2,0.,1.2,0.,1.2,,0.0,,0.0
1979-08-02 12:03:34.850 ,4,0,1.,1.2,1.,1.2,0.,1.2,,0.0,,0.0
1979-08-02 12:03:36.050 ,4,0,1.,1.2,0.,1.2,0.,1.2,,0.0,,0.0
1979-08-02 12:03:37.250 ,4,0,0.,1.2,0.,1.2,0.,1.2,,0.0,,0.0
1979-08-02 12:03:38.450 ,4,0,2.,1.2,0.,1.2,0.,1.2,,0.0,,0.0
1979-08-02 12:03:39.650 ,4,0,0.,1.2,0.,1.2,0.,1.2,,0.0,,0.0
1979-08-02 12:03:40.850 ,4,0,0.,1.2,0.,1.2,0.,1.2,,0.0,,0.0
1979-08-02 12:03:42.050 ,4,0,0.,1.2,0.,1.2,0.,1.2,,0.0,,0.0
1979-08-02 12:03:43.250 ,4,0,1.,1.2,0.,1.2,0.,1.2,,0.0,,0.0
1979-08-02 12:03:44.450 ,4,0,1.,1.2,0.,1.2,0.,1.2,,0.0,,0.0
1979-08-02 12:03:45.650 ,4,0,1.,1.2,0.,1.2,0.,1.2,,0.0,,0.0
1979-08-02 12:03:46.850 ,4,0,1.,1.2,0.,1.2,0.,1.2,,0.0,,0.0
1979-08-02 12:03:48.050 ,4,0,0.,1.2,0.,1.2,0.,1.2,,0.0,,0.0
1979-08-02 12:03:49.250 ,4,0,2.,1.2,1.,1.2,0.,1.2,,0.0,,0.0
1979-08-02 12:03:50.450 ,4,0,1.,1.2,1.,1.2,0.,1.2,,0.0,,0.0
1979-08-02 12:03:51.650 ,4,0,0.,1.2,0.,1.2,0.,1.2,,0.0,,0.0
1979-08-02 12:03:52.850 ,4,0,1.,1.2,0.,1.2,0.,1.2,,0.0,,0.0
1979-08-02 12:03:54.050 ,4,0,1.,1.2,1.,1.2,0.,1.2,,0.0,,0.0
1979-08-02 12:03:55.250 ,4,0,3.,1.2,0.,1.2,0.,1.2,,0.0,,0.0
1979-08-02 12:03:56.450 ,4,0,1.,1.2,0.,1.2,0.,1.2,,0.0,,0.0
1979-08-02 12:03:57.650 ,5,0,0.,1.2,0.,1.2,0.,1.2,,0.0,,0.0
1979-08-02 12:03:58.850 ,5,0,0.,1.2,0.,1.2,0.,1.2,,0.0,,0.0
1979-08-02 12:04:00.050 ,5,0,0.,1.2,0.,1.2,0.,1.2,,0.0,,0.0
1979-08-02 12:04:01.250 ,5,0,3.,1.2,0.,1.2,0.,1.2,,0.0,,0.0
1979-08-02 12:04:02.450 ,5,0,1.,1.2,0.,1.2,0.,1.2,,0.0,,0.0
1979-08-02 12:04:03.650 ,5,0,1.,1.2,0.,1.2,0.,1.2,,0.0,,0.0
1979-08-02 12:04:04.850 ,5,0,0.,1.2,0.,1.2,0.,1.2,,0.0,,0.0
1979-08-02 12:04:06.050 ,5,0,1.,1.2,0.,1.2,0.,1.2,,0.0,,0.0
1979-08-02 12:04:07.250 ,5,0,0.,1.2,0.,1.2,0.,1.2,,0.0,,0.0
1979-08-02 12:04:08.450 ,5,0,0.,1.2,0.,1.2,0.,1.2,,0.0,,0.0
1979-08-02 12:04:09.650 ,5,0,2.,1.2,0.,1.2,0.,1.2,,0.0,,0.0
1979-08-02 12:04:10.850 ,5,0,3.,1.2,1.,1.2,1.,1.2,,0.0,,0.0
1979-08-02 12:04:12.050 ,5,0,1.,1.2,0.,1.2,0.,1.2,,0.0,,0.0
1979-08-02 12:04:13.250 ,5,0,0.,1.2,0.,1.2,0.,1.2,,0.0,,0.0
1979-08-02 12:04:14.450 ,5,0,0.,1.2,0.,1.2,0.,1.2,,0.0,,0.0
1979-08-02 12:04:15.650 ,5,0,1.,1.2,0.,1.2,0.,1.2,,0.0,,0.0
1979-08-02 12:04:16.850 ,5,0,2.,1.2,0.,1.2,0.,1.2,,0.0,,0.0
1979-08-02 12:04:18.050 ,5,0,0.,1.2,0.,1.2,0.,1.2,,0.0,,0.0
1979-08-02 12:04:19.250 ,5,0,1.,1.2,0.,1.2,0.,1.2,,0.0,,0.0
1979-08-02 12:04:20.450 ,5,0,1.,1.2,0.,1.2,0.,1.2,,0.0,,0.0
1979-08-02 12:04:21.650 ,5,0,0.,1.2,0.,1.2,0.,1.2,,0.0,,0.0
1979-08-02 12:04:22.850 ,5,0,0.,1.2,0.,1.2,0.,1.2,,0.0,,0.0
1979-08-02 12:04:24.050 ,5,0,1.,1.2,0.,1.2,0.,1.2,,0.0,,0.0
1979-08-02 12:04:25.250 ,5,0,1.,1.2,0.,1.2,0.,1.2,,0.0,,0.0
1979-08-02 12:04:26.450 ,5,0,0.,1.2,0.,1.2,0.,1.2,,0.0,,0.0
1979-08-02 12:04:27.650 ,5,0,1.,1.2,0.,1.2,0.,1.2,,0.0,,0.0
1979-08-02 12:04:28.850 ,5,0,2.,1.2,0.,1.2,0.,1.2,,0.0,,0.0
1979-08-02 12:04:30.050 ,5,0,0.,1.2,0.,1.2,0.,1.2,,0.0,,0.0
1979-08-02 12:04:31.250 ,5,0,0.,1.2,0.,1.2,0.,1.2,,0.0,,0.0
1979-08-02 12:04:32.450 ,5,0,1.,1.2,1.,1.2,0.,1.2,,0.0,,0.0
1979-08-02 12:04:33.650 ,5,0,0.,1.2,0.,1.2,0.,1.2,,0.0,,0.0
1979-08-02 12:04:34.850 ,5,0,0.,1.2,0.,1.2,0.,1.2,,0.0,,0.0
1979-08-02 12:04:36.050 ,5,0,0.,1.2,0.,1.2,0.,1.2,,0.0,,0.0
1979-08-02 12:04:37.250 ,5,0,2.,1.2,0.,1.2,0.,1.2,,0.0,,0.0
1979-08-02 12:04:38.450 ,5,0,0.,1.2,0.,1.2,0.,1.2,,0.0,,0.0
1979-08-02 12:04:39.650 ,5,0,1.,1.2,0.,1.2,0.,1.2,,0.0,,0.0
1979-08-02 12:04:40.850 ,5,0,1.,1.2,0.,1.2,0.,1.2,,0.0,,0.0
1979-08-02 12:04:42.050 ,5,0,0.,1.2,0.,1.2,0.,1.2,,0.0,,0.0
1979-08-02 12:04:43.250 ,5,0,2.,1.2,0.,1.2,0.,1.2,,0.0,,0.0
1979-08-02 12:04:44.450 ,5,0,0.,1.2,0.,1.2,0.,1.2,,0.0,,0.0
1979-08-02 12:04:45.650 ,6,0,1.,1.2,1.,1.2,1.,1.2,,0.0,,0.0
1979-08-02 12:04:46.850 ,6,0,1.,1.2,0.,1.2,0.,1.2,,0.0,,0.0
1979-08-02 12:04:48.050 ,6,0,0.,1.2,0.,1.2,0.,1.2,,0.0,,0.0
1979-08-02 12:04:49.250 ,6,0,1.,1.2,0.,1.2,0.,1.2,,0.0,,0.0
1979-08-02 12:04:50.450 ,6,0,0.,1.2,0.,1.2,0.,1.2,,0.0,,0.0
1979-08-02 12:04:51.650 ,6,0,1.,1.2,0.,1.2,0.,1.2,,0.0,,0.0
1979-08-02 12:04:52.850 ,6,0,0.,1.2,0.,1.2,0.,1.2,,0.0,,0.0
1979-08-02 12:04:54.050 ,6,0,2.,1.2,0.,1.2,0.,1.2,,0.0,,0.0
1979-08-02 12:04:55.250 ,6,0,0.,1.2,0.,1.2,0.,1.2,,0.0,,0.0
1979-08-02 12:04:56.450 ,6,0,2.,1.2,0.,1.2,0.,1.2,,0.0,,0.0
1979-08-02 12:04:57.650 ,6,0,3.,1.2,3.,1.2,1.,1.2,,0.0,,0.0
1979-08-02 12:04:58.850 ,6,0,0.,1.2,0.,1.2,0.,1.2,,0.0,,0.0
1979-08-02 12:05:00.050 ,6,0,1.,1.2,0.,1.2,0.,1.2,,0.0,,0.0
1979-08-02 12:05:01.250 ,6,0,0.,1.2,0.,1.2,0.,1.2,,0.0,,0.0
1979-08-02 12:05:02.450 ,6,0,0.,1.2,0.,1.2,0.,1.2,,0.0,,0.0
1979-08-02 12:05:03.650 ,6,0,1.,1.2,0.,1.2,0.,1.2,,0.0,,0.0
1979-08-02 12:05:04.850 ,6,0,3.,1.2,0.,1.2,0.,1.2,,0.0,,0.0
1979-08-02 12:05:06.050 ,6,0,1.,1.2,0.,1.2,0.,1.2,,0.0,,0.0
1979-08-02 12:05:07.250 ,6,0,3.,1.2,0.,1.2,0.,1.2,,0.0,,0.0
1979-08-02 12:05:08.450 ,6,0,1.,1.2,0.,1.2,0.,1.2,,0.0,,0.0
1979-08-02 12:05:09.650 ,6,0,2.,1.2,0.,1.2,0.,1.2,,0.0,,0.0
1979-08-02 12:05:10.850 ,6,0,1.,1.2,0.,1.2,0.,1.2,,0.0,,0.0
1979-08-02 12:05:12.050 ,6,0,0.,1.2,0.,1.2,0.,1.2,,0.0,,0.0
1979-08-02 12:05:13.250 ,6,0,0.,1.2,0.,1.2,0.,1.2,,0.0,,0.0
1979-08-02 12:05:14.450 ,6,0,2.,1.2,0.,1.2,0.,1.2,,0.0,,0.0
1979-08-02 12:05:15.650 ,6,0,2.,1.2,1.,1.2,1.,1.2,,0.0,,0.0
1979-08-02 12:05:16.850 ,6,0,1.,1.2,1.,1.2,0.,1.2,,0.0,,0.0
1979-08-02 12:05:18.050 ,6,0,3.,1.2,0.,1.2,0.,1.2,,0.0,,0.0
1979-08-02 12:05:19.250 ,6,0,0.,1.2,0.,1.2,0.,1.2,,0.0,,0.0
1979-08-02 12:05:20.450 ,6,0,2.,1.2,0.,1.2,0.,1.2,,0.0,,0.0
1979-08-02 12:05:21.650 ,6,0,0.,1.2,0.,1.2,0.,1.2,,0.0,,0.0
1979-08-02 12:05:22.850 ,6,0,0.,1.2,0.,1.2,0.,1.2,,0.0,,0.0
1979-08-02 12:05:24.050 ,6,0,0.,1.2,0.,1.2,0.,1.2,,0.0,,0.0
1979-08-02 12:05:25.250 ,6,0,1.,1.2,0.,1.2,0.,1.2,,0.0,,0.0
1979-08-02 12:05:26.450 ,6,0,0.,1.2,0.,1.2,0.,1.2,,0.0,,0.0
1979-08-02 12:05:27.650 ,6,0,1.,1.2,0.,1.2,0.,1.2,,0.0,,0.0
1979-08-02 12:05:28.850 ,6,0,1.,1.2,0.,1.2,0.,1.2,,0.0,,0.0
1979-08-02 12:05:30.050 ,6,0,0.,1.2,0.,1.2,0.,1.2,,0.0,,0.0
1979-08-02 12:05:31.250 ,6,0,1.,1.2,0.,1.2,0.,1.2,,0.0,,0.0
1979-08-02 12:05:32.450 ,6,0,0.,1.2,0.,1.2,0.,1.2,,0.0,,0.0
1979-08-02 12:05:33.650 ,7,0,0.,1.2,0.,1.2,0.,1.2,,0.0,,0.0
1979-08-02 12:05:34.850 ,7,0,1.,1.2,0.,1.2,0.,1.2,,0.0,,0.0
1979-08-02 12:05:36.050 ,7,0,0.,1.2,0.,1.2,0.,1.2,,0.0,,0.0
1979-08-02 12:05:37.250 ,7,0,1.,1.2,0.,1.2,0.,1.2,,0.0,,0.0
1979-08-02 12:05:38.450 ,7,0,0.,1.2,0.,1.2,0.,1.2,,0.0,,0.0
1979-08-02 12:05:39.650 ,7,0,1.,1.2,0.,1.2,0.,1.2,,0.0,,0.0
1979-08-02 12:05:40.850 ,7,0,1.,1.2,0.,1.2,0.,1.2,,0.0,,0.0
1979-08-02 12:05:42.050 ,7,0,0.,1.2,0.,1.2,0.,1.2,,0.0,,0.0
1979-08-02 12:05:43.250 ,7,0,0.,1.2,0.,1.2,0.,1.2,,0.0,,0.0
1979-08-02 12:05:44.450 ,7,0,1.,1.2,1.,1.2,1.,1.2,,0.0,,0.0
1979-08-02 12:05:45.650 ,7,0,0.,1.2,0.,1.2,0.,1.2,,0.0,,0.0
1979-08-02 12:05:46.850 ,7,0,0.,1.2,0.,1.2,0.,1.2,,0.0,,0.0
1979-08-02 12:05:48.050 ,7,0,0.,1.2,0.,1.2,0.,1.2,,0.0,,0.0
1979-08-02 12:05:49.250 ,7,0,0.,1.2,0.,1.2,0.,1.2,,0.0,,0.0
1979-08-02 12:05:50.450 ,7,0,2.,1.2,0.,1.2,0.,1.2,,0.0,,0.0
1979-08-02 12:05:51.650 ,7,0,0.,1.2,0.,1.2,0.,1.2,,0.0,,0.0
1979-08-02 12:05:52.850 ,7,0,1.,1.2,1.,1.2,0.,1.2,,0.0,,0.0
1979-08-02 12:05:54.050 ,7,0,1.,1.2,0.,1.2,0.,1.2,,0.0,,0.0
1979-08-02 12:05:55.250 ,7,0,0.,1.2,0.,1.2,0.,1.2,,0.0,,0.0
1979-08-02 12:05:56.450 ,7,0,0.,1.2,0.,1.2,0.,1.2,,0.0,,0.0
1979-08-02 12:05:57.650 ,7,0,1.,1.2,0.,1.2,0.,1.2,,0.0,,0.0
1979-08-02 12:05:58.850 ,7,0,0.,1.2,0.,1.2,0.,1.2,,0.0,,0.0
1979-08-02 12:06:00.050 ,7,0,0.,1.2,0.,1.2,0.,1.2,,0.0,,0.0
1979-08-02 12:06:01.250 ,7,0,1.,1.2,1.,1.2,1.,1.2,,0.0,,0.0
1979-08-02 12:06:02.450 ,7,0,1.,1.2,1.,1.2,0.,1.2,,0.0,,0.0
1979-08-02 12:06:03.650 ,7,0,0.,1.2,0.,1.2,0.,1.2,,0.0,,0.0
1979-08-02 12:06:04.850 ,7,0,0.,1.2,0.,1.2,0.,1.2,,0.0,,0.0
1979-08-02 12:06:06.050 ,7,0,0.,1.2,0.,1.2,0.,1.2,,0.0,,0.0
1979-08-02 12:06:07.250 ,7,0,0.,1.2,0.,1.2,0.,1.2,,0.0,,0.0
1979-08-02 12:06:08.450 ,7,0,1.,1.2,0.,1.2,0.,1.2,,0.0,,0.0
1979-08-02 12:06:09.650 ,7,0,1.,1.2,0.,1.2,0.,1.2,,0.0,,0.0
1979-08-02 12:06:10.850 ,7,0,0.,1.2,0.,1.2,0.,1.2,,0.0,,0.0
1979-08-02 12:06:12.050 ,7,0,0.,1.2,0.,1.2,0.,1.2,,0.0,,0.0
1979-08-02 12:06:13.250 ,7,0,0.,1.2,0.,1.2,0.,1.2,,0.0,,0.0
1979-08-02 12:06:14.450 ,7,0,1.,1.2,1.,1.2,0.,1.2,,0.0,,0.0
1979-08-02 12:06:15.650 ,7,0,1.,1.2,1.,1.2,0.,1.2,,0.0,,0.0
1979-08-02 12:06:16.850 ,7,0,0.,1.2,0.,1.2,0.,1.2,,0.0,,0.0
1979-08-02 12:06:18.050 ,7,0,0.,1.2,0.,1.2,0.,1.2,,0.0,,0.0
1979-08-02 12:06:19.250 ,7,0,0.,1.2,0.,1.2,0.,1.2,,0.0,,0.0
1979-08-02 12:06:20.450 ,7,0,0.,1.2,0.,1.2,0.,1.2,,0.0,,0.0
1979-08-02 12:06:21.650 ,7,0,0.,1.2,0.,1.2,0.,1.2,,0.0,,0.0
1979-08-02 12:06:22.850 ,7,0,0.,1.2,0.,1.2,0.,1.2,,0.0,,0.0
1979-08-02 12:06:24.050 ,7,0,0.,1.2,0.,1.2,0.,1.2,,0.0,,0.0
1979-08-02 12:06:25.250 ,7,0,0.,1.2,0.,1.2,0.,1.2,,0.0,,0.0
1979-08-02 12:06:26.450 ,7,0,0.,1.2,0.,1.2,0.,1.2,,0.0,,0.0
1979-08-02 12:06:27.650 ,7,0,0.,1.2,0.,1.2,0.,1.2,,0.0,,0.0
1979-08-02 12:06:28.850 ,7,0,0.,1.2,0.,1.2,0.,1.2,,0.0,,0.0
1979-08-02 12:06:30.050 ,7,0,0.,1.2,0.,1.2,0.,1.2,,0.0,,0.0
1979-08-02 12:06:31.250 ,7,0,0.,1.2,0.,1.2,0.,1.2,,0.0,,0.0
1979-08-02 12:06:32.450 ,7,0,0.,1.2,0.,1.2,0.,1.2,,0.0,,0.0
1979-08-02 12:06:33.650 ,7,0,0.,1.2,0.,1.2,0.,1.2,,0.0,,0.0
1979-08-02 12:06:34.850 ,7,0,0.,1.2,0.,1.2,0.,1.2,,0.0,,0.0
1979-08-02 12:06:36.050 ,7,0,0.,1.2,0.,1.2,0.,1.2,,0.0,,0.0
1979-08-02 12:06:37.250 ,7,0,0.,1.2,0.,1.2,0.,1.2,,0.0,,0.0
1979-08-02 12:06:38.450 ,7,0,0.,1.2,0.,1.2,0.,1.2,,0.0,,0.0
1979-08-02 12:06:39.650 ,7,0,0.,1.2,0.,1.2,0.,1.2,,0.0,,0.0
1979-08-02 12:06:40.850 ,7,0,0.,1.2,0.,1.2,0.,1.2,,0.0,,0.0
1979-08-02 12:06:42.050 ,7,0,0.,1.2,0.,1.2,0.,1.2,,0.0,,0.0
1979-08-02 12:06:43.250 ,7,0,1.,1.2,1.,1.2,1.,1.2,,0.0,,0.0
1979-08-02 12:06:44.450 ,7,0,0.,1.2,0.,1.2,0.,1.2,,0.0,,0.0
1979-08-02 12:06:45.650 ,7,0,1.,1.2,0.,1.2,0.,1.2,,0.0,,0.0
1979-08-02 12:06:46.850 ,7,0,0.,1.2,0.,1.2,0.,1.2,,0.0,,0.0
1979-08-02 12:06:48.050 ,7,0,0.,1.2,0.,1.2,0.,1.2,,0.0,,0.0
1979-08-02 12:06:49.250 ,7,0,0.,1.2,0.,1.2,0.,1.2,,0.0,,0.0
1979-08-02 12:06:50.450 ,7,0,0.,1.2,0.,1.2,0.,1.2,,0.0,,0.0
1979-08-02 12:06:51.650 ,7,0,3.,1.2,1.,1.2,1.,1.2,,0.0,,0.0
1979-08-02 12:06:52.850 ,7,0,0.,1.2,0.,1.2,0.,1.2,,0.0,,0.0
1979-08-02 12:06:54.050 ,7,0,0.,1.2,0.,1.2,0.,1.2,,0.0,,0.0
1979-08-02 12:06:55.250 ,7,0,0.,1.2,0.,1.2,0.,1.2,,0.0,,0.0
1979-08-02 12:06:56.450 ,7,0,0.,1.2,0.,1.2,0.,1.2,,0.0,,0.0
1979-08-02 12:06:57.650 ,7,0,0.,1.2,0.,1.2,0.,1.2,,0.0,,0.0
1979-08-02 12:06:58.850 ,7,0,0.,1.2,0.,1.2,0.,1.2,,0.0,,0.0
1979-08-02 12:07:00.050 ,7,0,0.,1.2,0.,1.2,0.,1.2,,0.0,,0.0
1979-08-02 12:07:01.250 ,7,0,0.,1.2,0.,1.2,0.,1.2,,0.0,,0.0
1979-08-02 12:07:02.450 ,7,0,1.,1.2,1.,1.2,0.,1.2,,0.0,,0.0
1979-08-02 12:07:03.650 ,7,0,0.,1.2,0.,1.2,0.,1.2,,0.0,,0.0
1979-08-02 12:07:04.850 ,7,0,0.,1.2,0.,1.2,0.,1.2,,0.0,,0.0
1979-08-02 12:07:06.050 ,7,0,0.,1.2,0.,1.2,0.,1.2,,0.0,,0.0
1979-08-02 12:07:07.250 ,7,0,2.,1.2,1.,1.2,0.,1.2,,0.0,,0.0
1979-08-02 12:07:08.450 ,7,0,0.,1.2,0.,1.2,0.,1.2,,0.0,,0.0
1979-08-02 12:07:09.650 ,6,0,1.,1.2,0.,1.2,0.,1.2,,0.0,,0.0
1979-08-02 12:07:10.850 ,6,0,1.,1.2,1.,1.2,0.,1.2,,0.0,,0.0
1979-08-02 12:07:12.050 ,6,0,0.,1.2,0.,1.2,0.,1.2,,0.0,,0.0
1979-08-02 12:07:13.250 ,6,0,1.,1.2,0.,1.2,0.,1.2,,0.0,,0.0
1979-08-02 12:07:14.450 ,6,0,0.,1.2,0.,1.2,0.,1.2,,0.0,,0.0
1979-08-02 12:07:15.650 ,6,0,1.,1.2,0.,1.2,0.,1.2,,0.0,,0.0
1979-08-02 12:07:16.850 ,6,0,2.,1.2,0.,1.2,0.,1.2,,0.0,,0.0
1979-08-02 12:07:18.050 ,6,0,1.,1.2,0.,1.2,0.,1.2,,0.0,,0.0
1979-08-02 12:07:19.250 ,6,0,0.,1.2,0.,1.2,0.,1.2,,0.0,,0.0
1979-08-02 12:07:20.450 ,6,0,1.,1.2,0.,1.2,0.,1.2,,0.0,,0.0
1979-08-02 12:07:21.650 ,6,0,2.,1.2,0.,1.2,0.,1.2,,0.0,,0.0
1979-08-02 12:07:22.850 ,6,0,4.,1.2,0.,1.2,0.,1.2,,0.0,,0.0
1979-08-02 12:07:24.050 ,6,0,1.,1.2,0.,1.2,0.,1.2,,0.0,,0.0
1979-08-02 12:07:25.250 ,6,0,0.,1.2,0.,1.2,0.,1.2,,0.0,,0.0
1979-08-02 12:07:26.450 ,6,0,0.,1.2,0.,1.2,0.,1.2,,0.0,,0.0
1979-08-02 12:07:27.650 ,6,0,3.,1.2,0.,1.2,0.,1.2,,0.0,,0.0
1979-08-02 12:07:28.850 ,6,0,2.,1.2,1.,1.2,0.,1.2,,0.0,,0.0
1979-08-02 12:07:30.050 ,6,0,0.,1.2,0.,1.2,0.,1.2,,0.0,,0.0
1979-08-02 12:07:31.250 ,6,0,1.,1.2,0.,1.2,0.,1.2,,0.0,,0.0
1979-08-02 12:07:32.450 ,6,0,2.,1.2,0.,1.2,0.,1.2,,0.0,,0.0
1979-08-02 12:07:33.650 ,6,0,2.,1.2,0.,1.2,0.,1.2,,0.0,,0.0
1979-08-02 12:07:34.850 ,6,0,0.,1.2,0.,1.2,0.,1.2,,0.0,,0.0
1979-08-02 12:07:36.050 ,6,0,1.,1.2,0.,1.2,0.,1.2,,0.0,,0.0
1979-08-02 12:07:37.250 ,6,0,1.,1.2,0.,1.2,0.,1.2,,0.0,,0.0
1979-08-02 12:07:38.450 ,6,0,3.,1.2,0.,1.2,0.,1.2,,0.0,,0.0
1979-08-02 12:07:39.650 ,6,0,2.,1.2,0.,1.2,0.,1.2,,0.0,,0.0
1979-08-02 12:07:40.850 ,6,0,0.,1.2,0.,1.2,0.,1.2,,0.0,,0.0
1979-08-02 12:07:42.050 ,6,0,2.,1.2,0.,1.2,0.,1.2,,0.0,,0.0
1979-08-02 12:07:43.250 ,6,0,1.,1.2,0.,1.2,0.,1.2,,0.0,,0.0
1979-08-02 12:07:44.450 ,6,0,1.,1.2,0.,1.2,0.,1.2,,0.0,,0.0
1979-08-02 12:07:45.650 ,6,0,1.,1.2,0.,1.2,0.,1.2,,0.0,,0.0
1979-08-02 12:07:46.850 ,6,0,0.,1.2,0.,1.2,0.,1.2,,0.0,,0.0
1979-08-02 12:07:48.050 ,6,0,1.,1.2,0.,1.2,0.,1.2,,0.0,,0.0
1979-08-02 12:07:49.250 ,6,0,2.,1.2,0.,1.2,0.,1.2,,0.0,,0.0
1979-08-02 12:07:50.450 ,6,0,1.,1.2,0.,1.2,0.,1.2,,0.0,,0.0
1979-08-02 12:07:51.650 ,6,0,0.,1.2,0.,1.2,0.,1.2,,0.0,,0.0
1979-08-02 12:07:52.850 ,6,0,2.,1.2,0.,1.2,0.,1.2,,0.0,,0.0
1979-08-02 12:07:54.050 ,6,0,0.,1.2,0.,1.2,0.,1.2,,0.0,,0.0
1979-08-02 12:07:55.250 ,6,0,1.,1.2,1.,1.2,0.,1.2,,0.0,,0.0
1979-08-02 12:07:56.450 ,6,0,1.,1.2,0.,1.2,0.,1.2,,0.0,,0.0
1979-08-02 12:07:57.650 ,5,0,3.,1.2,0.,1.2,0.,1.2,,0.0,,0.0
1979-08-02 12:07:58.850 ,5,0,0.,1.2,0.,1.2,0.,1.2,,0.0,,0.0
1979-08-02 12:08:00.050 ,5,0,0.,1.2,0.,1.2,0.,1.2,,0.0,,0.0
1979-08-02 12:08:01.250 ,5,0,1.,1.2,0.,1.2,0.,1.2,,0.0,,0.0
1979-08-02 12:08:02.450 ,5,0,1.,1.2,0.,1.2,0.,1.2,,0.0,,0.0
1979-08-02 12:08:03.650 ,5,0,2.,1.2,1.,1.2,1.,1.2,,0.0,,0.0
1979-08-02 12:08:04.850 ,5,0,0.,1.2,0.,1.2,0.,1.2,,0.0,,0.0
1979-08-02 12:08:06.050 ,5,0,0.,1.2,0.,1.2,0.,1.2,,0.0,,0.0
1979-08-02 12:08:07.250 ,5,0,0.,1.2,0.,1.2,0.,1.2,,0.0,,0.0
1979-08-02 12:08:08.450 ,5,0,0.,1.2,0.,1.2,0.,1.2,,0.0,,0.0
1979-08-02 12:08:09.650 ,5,0,1.,1.2,0.,1.2,0.,1.2,,0.0,,0.0
1979-08-02 12:08:10.850 ,5,0,1.,1.2,0.,1.2,0.,1.2,,0.0,,0.0